Time,TemperatureF,DewpointF,PressureIn,WindDirection,WindDirectionDegrees,WindSpeedMPH,WindSpeedGustMPH,Humidity,HourlyPrecipIn,Conditions,Clouds,dailyrainin,SoftwareType,DateUTC
2013-01-12 00:03:00,50.8,47.0,29.78,SSW,205,8.9,13.7,87,0.00,,,0.00,WUHU216HW,2013-01-12 06:03:00,
2013-01-12 00:08:00,50.8,47.0,29.77,South,180,7.6,13.2,87,0.00,,,0.00,WUHU216HW,2013-01-12 06:08:00,
2013-01-12 00:13:00,50.6,46.8,29.78,South,180,7.6,10.0,87,0.00,,,0.00,WUHU216HW,2013-01-12 06:13:00,
2013-01-12 00:18:00,50.6,46.8,29.78,SSE,158,7.6,11.0,87,0.00,,,0.00,WUHU216HW,2013-01-12 06:18:00,
2013-01-12 00:23:00,50.6,46.8,29.78,South,180,12.6,12.6,87,0.00,,,0.00,WUHU216HW,2013-01-12 06:23:00,
2013-01-12 00:28:00,50.6,46.4,29.78,SSE,158,8.6,12.6,86,0.00,,,0.00,WUHU216HW,2013-01-12 06:28:00,
2013-01-12 00:33:00,50.8,47.0,29.78,South,183,14.5,19.3,87,0.00,,,0.00,WUHU216HW,2013-01-12 06:33:00,
2013-01-12 00:38:00,50.8,47.0,29.78,South,190,7.6,19.3,87,0.00,,,0.00,WUHU216HW,2013-01-12 06:38:00,
2013-01-12 00:43:00,50.9,46.8,29.78,South,180,12.1,12.6,86,0.00,,,0.00,WUHU216HW,2013-01-12 06:43:00,
2013-01-12 00:48:00,50.9,46.8,29.78,SW,225,7.8,12.4,86,0.00,,,0.00,WUHU216HW,2013-01-12 06:48:00,
2013-01-12 00:53:00,50.9,46.8,29.79,SW,225,4.8,12.4,86,0.00,,,0.00,WUHU216HW,2013-01-12 06:53:00,
2013-01-12 00:58:00,50.9,46.8,29.79,SSW,194,11.1,12.6,86,0.00,,,0.00,WUHU216HW,2013-01-12 06:58:00,
2013-01-12 01:03:00,51.1,47.0,29.78,South,180,10.4,12.6,86,0.00,,,0.00,WUHU216HW,2013-01-12 07:03:00,
2013-01-12 01:08:00,51.1,47.0,29.78,South,180,15.0,15.0,86,0.00,,,0.00,WUHU216HW,2013-01-12 07:08:00,
2013-01-12 01:13:00,51.1,46.7,29.79,SSW,203,7.1,15.0,85,0.00,,,0.00,WUHU216HW,2013-01-12 07:13:00,
2013-01-12 01:18:00,51.3,46.9,29.78,South,177,8.7,15.0,85,0.00,,,0.00,WUHU216HW,2013-01-12 07:18:00,
2013-01-12 01:23:00,51.5,46.8,29.78,SSW,203,12.4,12.4,84,0.00,,,0.00,WUHU216HW,2013-01-12 07:23:00,
2013-01-12 01:28:00,51.5,46.8,29.78,SSW,192,10.3,14.8,84,0.00,,,0.00,WUHU216HW,2013-01-12 07:28:00,
2013-01-12 01:33:00,51.5,46.8,29.78,SSE,158,9.1,14.8,84,0.00,,,0.00,WUHU216HW,2013-01-12 07:33:00,
2013-01-12 01:38:00,51.5,46.8,29.79,SW,225,6.1,10.2,84,0.00,,,0.00,WUHU216HW,2013-01-12 07:38:00,
2013-01-12 01:43:00,51.7,46.6,29.79,SSW,203,11.0,13.7,83,0.00,,,0.00,WUHU216HW,2013-01-12 07:43:00,
2013-01-12 01:48:00,51.7,46.6,29.79,SW,225,8.9,13.7,83,0.00,,,0.00,WUHU216HW,2013-01-12 07:48:00,
2013-01-12 01:53:00,51.7,46.6,29.79,SSW,203,8.3,10.4,83,0.00,,,0.00,WUHU216HW,2013-01-12 07:53:00,
2013-01-12 01:58:00,51.7,46.6,29.79,SSW,203,8.0,10.4,83,0.00,,,0.00,WUHU216HW,2013-01-12 07:58:00,
2013-01-12 02:03:00,51.7,46.6,29.79,SSW,200,6.0,13.4,83,0.00,,,0.00,WUHU216HW,2013-01-12 08:03:00,
2013-01-12 02:08:00,51.5,46.4,29.79,SSW,208,6.3,13.4,83,0.00,,,0.00,WUHU216HW,2013-01-12 08:08:00,
2013-01-12 02:13:00,51.5,46.4,29.80,SW,225,13.7,13.7,83,0.00,,,0.00,WUHU216HW,2013-01-12 08:13:00,
2013-01-12 02:18:00,51.5,46.8,29.79,SSW,203,5.4,13.7,84,0.00,,,0.00,WUHU216HW,2013-01-12 08:18:00,
2013-01-12 02:23:00,51.5,46.8,29.79,SSW,205,7.2,13.7,84,0.00,,,0.00,WUHU216HW,2013-01-12 08:23:00,
2013-01-12 02:28:00,51.7,46.6,29.79,SSE,158,7.6,12.4,83,0.00,,,0.00,WUHU216HW,2013-01-12 08:28:00,
2013-01-12 02:33:00,51.7,46.6,29.79,SSE,158,7.6,13.2,83,0.00,,,0.00,WUHU216HW,2013-01-12 08:33:00,
2013-01-12 02:38:00,51.5,46.4,29.79,SSW,201,4.6,13.2,83,0.00,,,0.00,WUHU216HW,2013-01-12 08:38:00,
2013-01-12 02:43:00,51.5,46.4,29.79,SW,214,4.8,11.8,83,0.00,,,0.00,WUHU216HW,2013-01-12 08:43:00,
2013-01-12 02:48:00,51.7,47.0,29.80,South,186,9.2,16.7,84,0.00,,,0.00,WUHU216HW,2013-01-12 08:48:00,
2013-01-12 02:53:00,51.7,46.6,29.80,SSW,203,6.1,16.7,83,0.00,,,0.00,WUHU216HW,2013-01-12 08:53:00,
2013-01-12 02:58:00,51.7,46.6,29.79,SSW,192,10.1,16.1,83,0.00,,,0.00,WUHU216HW,2013-01-12 08:58:00,
2013-01-12 03:03:00,51.8,46.8,29.79,SSW,203,7.6,16.1,83,0.00,,,0.00,WUHU216HW,2013-01-12 09:03:00,
2013-01-12 03:08:00,51.7,46.6,29.79,SSW,198,6.1,15.4,83,0.00,,,0.00,WUHU216HW,2013-01-12 09:08:00,
2013-01-12 03:13:00,51.7,46.6,29.80,SSW,207,6.0,15.4,83,0.00,,,0.00,WUHU216HW,2013-01-12 09:13:00,
2013-01-12 03:18:00,51.7,46.6,29.80,SW,225,5.6,15.4,83,0.00,,,0.00,WUHU216HW,2013-01-12 09:18:00,
2013-01-12 03:23:00,51.7,47.0,29.79,SSW,197,10.1,15.4,84,0.00,,,0.00,WUHU216HW,2013-01-12 09:23:00,
2013-01-12 03:28:00,51.7,47.0,29.79,SW,225,9.1,13.4,84,0.00,,,0.00,WUHU216HW,2013-01-12 09:28:00,
2013-01-12 03:33:00,51.8,46.8,29.80,SW,225,5.6,10.7,83,0.00,,,0.00,WUHU216HW,2013-01-12 09:33:00,
2013-01-12 03:38:00,51.8,46.8,29.80,SSW,203,8.0,10.7,83,0.00,,,0.00,WUHU216HW,2013-01-12 09:38:00,
2013-01-12 03:43:00,51.8,46.8,29.79,SSW,205,7.0,12.4,83,0.00,,,0.00,WUHU216HW,2013-01-12 09:43:00,
2013-01-12 03:48:00,51.8,46.8,29.79,SSW,205,4.6,12.4,83,0.00,,,0.00,WUHU216HW,2013-01-12 09:48:00,
2013-01-12 03:53:00,51.7,46.6,29.79,SSW,200,6.5,12.1,83,0.00,,,0.00,WUHU216HW,2013-01-12 09:53:00,
2013-01-12 03:58:00,51.8,46.8,29.79,SW,221,6.0,12.1,83,0.00,,,0.00,WUHU216HW,2013-01-12 09:58:00,
2013-01-12 04:03:00,51.8,46.8,29.79,SW,225,6.1,13.7,83,0.00,,,0.00,WUHU216HW,2013-01-12 10:03:00,
2013-01-12 04:08:00,51.8,46.8,29.79,SW,225,8.9,13.7,83,0.00,,,0.00,WUHU216HW,2013-01-12 10:08:00,
2013-01-12 04:13:00,51.7,46.6,29.79,SSW,204,7.3,10.2,83,0.00,,,0.00,WUHU216HW,2013-01-12 10:13:00,
2013-01-12 04:18:00,51.7,46.6,29.79,South,190,8.2,10.0,83,0.00,,,0.00,WUHU216HW,2013-01-12 10:18:00,
2013-01-12 04:23:00,51.5,46.4,29.79,SW,225,7.0,10.0,83,0.00,,,0.00,WUHU216HW,2013-01-12 10:23:00,
2013-01-12 04:28:00,51.5,46.4,29.79,SW,225,10.2,10.2,83,0.00,,,0.00,WUHU216HW,2013-01-12 10:28:00,
2013-01-12 04:33:00,51.5,46.8,29.79,SSE,158,10.0,10.2,84,0.00,,,0.00,WUHU216HW,2013-01-12 10:33:00,
2013-01-12 04:38:00,51.5,46.8,29.79,SW,218,3.7,10.2,84,0.00,,,0.00,WUHU216HW,2013-01-12 10:38:00,
2013-01-12 04:43:00,51.5,46.8,29.79,SSW,207,7.1,14.3,84,0.00,,,0.00,WUHU216HW,2013-01-12 10:43:00,
2013-01-12 04:48:00,51.5,46.8,29.79,SW,219,4.0,14.3,84,0.00,,,0.00,WUHU216HW,2013-01-12 10:48:00,
2013-01-12 04:53:00,51.5,46.8,29.79,SSW,212,4.4,13.7,84,0.00,,,0.00,WUHU216HW,2013-01-12 10:53:00,
2013-01-12 04:58:00,51.5,46.8,29.79,SSW,203,4.6,13.7,84,0.00,,,0.00,WUHU216HW,2013-01-12 10:58:00,
2013-01-12 05:03:00,51.3,46.6,29.79,SW,225,8.3,11.0,84,0.00,,,0.00,WUHU216HW,2013-01-12 11:03:00,
2013-01-12 05:08:00,51.3,46.6,29.79,SW,225,5.2,11.0,84,0.00,,,0.00,WUHU216HW,2013-01-12 11:08:00,
2013-01-12 05:13:00,51.3,46.6,29.80,SW,228,5.3,10.0,84,0.00,,,0.00,WUHU216HW,2013-01-12 11:13:00,
2013-01-12 05:18:00,51.3,46.6,29.80,SW,220,6.3,10.0,84,0.00,,,0.00,WUHU216HW,2013-01-12 11:18:00,
2013-01-12 05:23:00,51.3,46.6,29.80,SW,218,7.8,9.4,84,0.00,,,0.00,WUHU216HW,2013-01-12 11:23:00,
2013-01-12 05:28:00,51.3,46.6,29.81,SSW,206,6.8,9.1,84,0.00,,,0.00,WUHU216HW,2013-01-12 11:28:00,
2013-01-12 05:33:00,51.3,46.6,29.81,SSE,158,6.5,8.6,84,0.00,,,0.00,WUHU216HW,2013-01-12 11:33:00,
2013-01-12 05:38:00,51.1,46.5,29.81,SW,214,4.7,8.0,84,0.00,,,0.00,WUHU216HW,2013-01-12 11:38:00,
2013-01-12 05:43:00,51.1,46.5,29.81,South,180,5.9,8.6,84,0.00,,,0.00,WUHU216HW,2013-01-12 11:43:00,
2013-01-12 05:48:00,51.3,46.9,29.82,SW,221,4.5,11.8,85,0.00,,,0.00,WUHU216HW,2013-01-12 11:48:00,
2013-01-12 05:53:00,51.3,46.6,29.83,SSE,158,6.7,11.8,84,0.00,,,0.00,WUHU216HW,2013-01-12 11:53:00,
2013-01-12 05:58:00,51.1,46.7,29.83,SW,225,7.2,10.2,85,0.00,,,0.00,WUHU216HW,2013-01-12 11:58:00,
2013-01-12 06:03:00,51.1,46.7,29.83,SSW,198,6.4,10.2,85,0.00,,,0.00,WUHU216HW,2013-01-12 12:03:00,
2013-01-12 06:08:00,51.1,46.7,29.83,South,180,7.2,7.6,85,0.00,,,0.00,WUHU216HW,2013-01-12 12:08:00,
2013-01-12 06:13:00,51.1,46.7,29.83,SSW,198,7.7,11.0,85,0.00,,,0.00,WUHU216HW,2013-01-12 12:13:00,
2013-01-12 06:18:00,51.1,46.7,29.84,WSW,248,3.7,11.0,85,0.00,,,0.00,WUHU216HW,2013-01-12 12:18:00,
2013-01-12 06:23:00,51.1,46.7,29.84,SW,225,6.5,8.0,85,0.00,,,0.00,WUHU216HW,2013-01-12 12:23:00,
2013-01-12 06:28:00,50.9,46.5,29.84,South,180,5.6,6.5,85,0.00,,,0.00,WUHU216HW,2013-01-12 12:28:00,
2013-01-12 06:33:00,50.9,46.5,29.84,SSW,203,5.2,7.2,85,0.00,,,0.00,WUHU216HW,2013-01-12 12:33:00,
2013-01-12 06:38:00,50.8,46.6,29.84,South,180,7.2,10.2,86,0.00,,,0.00,WUHU216HW,2013-01-12 12:38:00,
2013-01-12 06:43:00,50.9,46.5,29.84,SSW,200,4.0,10.2,85,0.00,,,0.00,WUHU216HW,2013-01-12 12:43:00,
2013-01-12 06:48:00,50.8,46.6,29.84,SSW,203,4.1,10.2,86,0.00,,,0.00,WUHU216HW,2013-01-12 12:48:00,
2013-01-12 06:53:00,50.8,46.6,29.85,SSW,212,4.4,10.2,86,0.00,,,0.00,WUHU216HW,2013-01-12 12:53:00,
2013-01-12 06:58:00,50.8,46.6,29.85,SSW,203,5.6,7.6,86,0.00,,,0.00,WUHU216HW,2013-01-12 12:58:00,
2013-01-12 07:03:00,50.8,46.6,29.85,SW,226,4.2,7.6,86,0.00,,,0.00,WUHU216HW,2013-01-12 13:03:00,
2013-01-12 07:08:00,50.9,46.8,29.86,SSW,203,7.8,10.2,86,0.00,,,0.00,WUHU216HW,2013-01-12 13:08:00,
2013-01-12 07:13:00,50.9,46.8,29.86,SW,225,4.6,10.2,86,0.00,,,0.00,WUHU216HW,2013-01-12 13:13:00,
2013-01-12 07:18:00,50.9,46.8,29.86,SSW,203,6.5,7.8,86,0.00,,,0.00,WUHU216HW,2013-01-12 13:18:00,
2013-01-12 07:23:00,50.9,46.8,29.86,SSW,203,8.0,8.3,86,0.00,,,0.00,WUHU216HW,2013-01-12 13:23:00,
2013-01-12 07:28:00,50.9,46.8,29.86,SW,235,5.0,9.4,86,0.00,,,0.00,WUHU216HW,2013-01-12 13:28:00,
2013-01-12 07:33:00,50.9,46.8,29.87,South,180,6.1,9.4,86,0.00,,,0.00,WUHU216HW,2013-01-12 13:33:00,
2013-01-12 07:38:00,50.9,46.8,29.87,SSW,203,5.6,9.4,86,0.00,,,0.00,WUHU216HW,2013-01-12 13:38:00,
2013-01-12 07:43:00,51.1,47.0,29.88,South,180,7.2,9.4,86,0.00,,,0.00,WUHU216HW,2013-01-12 13:43:00,
2013-01-12 07:48:00,51.1,47.0,29.87,South,180,3.2,7.2,86,0.00,,,0.00,WUHU216HW,2013-01-12 13:48:00,
2013-01-12 07:53:00,51.1,47.0,29.87,South,180,10.0,10.0,86,0.00,,,0.00,WUHU216HW,2013-01-12 13:53:00,
2013-01-12 07:58:00,51.1,47.0,29.88,SSW,203,5.9,10.0,86,0.00,,,0.00,WUHU216HW,2013-01-12 13:58:00,
2013-01-12 08:03:00,51.5,47.3,29.88,SW,225,3.1,10.0,86,0.00,,,0.00,WUHU216HW,2013-01-12 14:03:00,
2013-01-12 08:08:00,51.5,47.1,29.88,SSW,203,4.8,5.9,85,0.00,,,0.00,WUHU216HW,2013-01-12 14:08:00,
2013-01-12 08:13:00,51.5,47.1,29.88,SSW,195,4.4,7.6,85,0.00,,,0.00,WUHU216HW,2013-01-12 14:13:00,
2013-01-12 08:18:00,51.5,47.1,29.88,SSW,203,4.1,7.6,85,0.00,,,0.00,WUHU216HW,2013-01-12 14:18:00,
2013-01-12 08:23:00,51.7,47.3,29.89,SW,222,2.7,4.8,85,0.00,,,0.00,WUHU216HW,2013-01-12 14:23:00,
2013-01-12 08:28:00,51.8,47.4,29.89,SW,225,2.8,4.3,85,0.00,,,0.00,WUHU216HW,2013-01-12 14:28:00,
2013-01-12 08:33:00,52.2,47.5,29.89,SSW,198,4.5,6.1,84,0.00,,,0.00,WUHU216HW,2013-01-12 14:33:00,
2013-01-12 08:38:00,52.6,47.9,29.89,SW,225,4.1,6.1,84,0.00,,,0.00,WUHU216HW,2013-01-12 14:38:00,
2013-01-12 08:43:00,52.6,47.9,29.90,SSW,210,3.6,7.8,84,0.00,,,0.00,WUHU216HW,2013-01-12 14:43:00,
2013-01-12 08:48:00,52.7,47.7,29.90,SW,216,4.8,7.8,83,0.00,,,0.00,WUHU216HW,2013-01-12 14:48:00,
2013-01-12 08:53:00,52.7,47.7,29.90,SSW,211,3.7,5.6,83,0.00,,,0.00,WUHU216HW,2013-01-12 14:53:00,
2013-01-12 08:58:00,52.9,47.9,29.90,SSW,203,7.2,7.2,83,0.00,,,0.00,WUHU216HW,2013-01-12 14:58:00,
2013-01-12 09:03:00,53.3,48.0,29.90,SSW,196,5.3,8.3,82,0.00,,,0.00,WUHU216HW,2013-01-12 15:03:00,
2013-01-12 09:08:00,53.6,48.3,29.90,South,180,5.6,8.3,82,0.00,,,0.00,WUHU216HW,2013-01-12 15:08:00,
2013-01-12 09:13:00,54.0,48.6,29.90,SW,228,2.5,5.6,82,0.00,,,0.00,WUHU216HW,2013-01-12 15:13:00,
2013-01-12 09:18:00,54.4,48.7,29.91,SW,225,4.3,5.6,81,0.00,,,0.00,WUHU216HW,2013-01-12 15:18:00,
2013-01-12 09:23:00,54.7,48.7,29.91,SW,215,4.1,7.6,80,0.00,,,0.00,WUHU216HW,2013-01-12 15:23:00,
2013-01-12 09:28:00,54.7,48.3,29.91,South,180,4.8,7.6,79,0.00,,,0.00,WUHU216HW,2013-01-12 15:28:00,
2013-01-12 09:33:00,54.4,48.3,29.91,SSW,203,5.6,5.6,80,0.00,,,0.00,WUHU216HW,2013-01-12 15:33:00,
2013-01-12 09:38:00,54.4,48.3,29.91,SW,225,3.2,6.1,80,0.00,,,0.00,WUHU216HW,2013-01-12 15:38:00,
2013-01-12 09:43:00,54.5,48.5,29.91,SW,232,2.7,6.1,80,0.00,,,0.00,WUHU216HW,2013-01-12 15:43:00,
2013-01-12 09:48:00,54.5,48.5,29.91,SW,217,3.1,5.2,80,0.00,,,0.00,WUHU216HW,2013-01-12 15:48:00,
2013-01-12 09:53:00,54.5,48.2,29.91,SSW,203,7.6,9.1,79,0.00,,,0.00,WUHU216HW,2013-01-12 15:53:00,
2013-01-12 09:58:00,54.5,48.2,29.91,WSW,248,5.2,9.1,79,0.00,,,0.00,WUHU216HW,2013-01-12 15:58:00,
2013-01-12 10:03:00,54.5,48.2,29.91,WSW,237,3.2,7.6,79,0.00,,,0.00,WUHU216HW,2013-01-12 16:03:00,
2013-01-12 10:08:00,54.9,48.5,29.92,SSW,211,3.5,6.5,79,0.00,,,0.00,WUHU216HW,2013-01-12 16:08:00,
2013-01-12 10:13:00,55.4,49.0,29.91,SW,228,2.7,6.5,79,0.00,,,0.00,WUHU216HW,2013-01-12 16:13:00,
2013-01-12 10:18:00,56.0,49.5,29.92,SW,225,5.6,5.6,79,0.00,,,0.00,WUHU216HW,2013-01-12 16:18:00,
2013-01-12 10:23:00,56.9,50.4,29.91,SW,225,3.5,5.6,79,0.00,,,0.00,WUHU216HW,2013-01-12 16:23:00,
2013-01-12 10:28:00,57.1,49.5,29.91,SSW,203,5.4,5.4,76,0.00,,,0.00,WUHU216HW,2013-01-12 16:28:00,
2013-01-12 10:33:00,56.9,49.3,29.90,SW,225,2.6,5.4,76,0.00,,,0.00,WUHU216HW,2013-01-12 16:33:00,
2013-01-12 10:38:00,56.9,49.3,29.90,SW,225,3.0,5.4,76,0.00,,,0.00,WUHU216HW,2013-01-12 16:38:00,
2013-01-12 10:43:00,56.9,49.0,29.91,SW,225,2.7,4.8,75,0.00,,,0.00,WUHU216HW,2013-01-12 16:43:00,
2013-01-12 10:48:00,56.7,49.1,29.91,WSW,239,2.0,4.8,76,0.00,,,0.00,WUHU216HW,2013-01-12 16:48:00,
2013-01-12 10:53:00,56.7,48.4,29.91,WSW,248,4.3,4.3,74,0.00,,,0.00,WUHU216HW,2013-01-12 16:53:00,
2013-01-12 10:58:00,56.5,48.6,29.91,SW,230,3.1,4.3,75,0.00,,,0.00,WUHU216HW,2013-01-12 16:58:00,
2013-01-12 11:03:00,56.5,48.6,29.91,SW,218,2.4,6.5,75,0.00,,,0.00,WUHU216HW,2013-01-12 17:03:00,
2013-01-12 11:08:00,56.3,48.5,29.91,WSW,248,6.7,6.7,75,0.00,,,0.00,WUHU216HW,2013-01-12 17:08:00,
2013-01-12 11:13:00,56.3,48.5,29.91,WSW,248,2.9,6.7,75,0.00,,,0.00,WUHU216HW,2013-01-12 17:13:00,
2013-01-12 11:18:00,56.3,48.5,29.92,SW,222,2.8,4.6,75,0.00,,,0.00,WUHU216HW,2013-01-12 17:18:00,
2013-01-12 11:23:00,56.2,48.3,29.91,NW,315,4.1,4.3,75,0.00,,,0.00,WUHU216HW,2013-01-12 17:23:00,
2013-01-12 11:28:00,55.8,47.6,29.92,West,272,6.8,8.0,74,0.00,,,0.00,WUHU216HW,2013-01-12 17:28:00,
2013-01-12 11:33:00,55.4,47.6,29.92,WNW,293,7.0,8.9,75,0.00,,,0.00,WUHU216HW,2013-01-12 17:33:00,
2013-01-12 11:38:00,55.1,47.3,29.92,SW,225,4.6,8.9,75,0.00,,,0.00,WUHU216HW,2013-01-12 17:38:00,
2013-01-12 11:43:00,54.9,46.7,29.92,WSW,246,4.0,7.0,74,0.00,,,0.00,WUHU216HW,2013-01-12 17:43:00,
2013-01-12 11:48:00,54.7,46.9,29.93,SSW,203,4.1,6.7,75,0.00,,,0.00,WUHU216HW,2013-01-12 17:48:00,
2013-01-12 11:53:00,54.5,46.8,29.92,WSW,248,3.7,7.6,75,0.00,,,0.00,WUHU216HW,2013-01-12 17:53:00,
2013-01-12 11:58:00,54.4,46.6,29.92,WSW,239,3.7,7.6,75,0.00,,,0.00,WUHU216HW,2013-01-12 17:58:00,
2013-01-12 12:03:00,54.4,46.3,29.92,SSW,203,6.5,6.5,74,0.00,,,0.00,WUHU216HW,2013-01-12 18:03:00,
2013-01-12 12:08:00,54.4,46.3,29.92,SW,225,3.0,6.5,74,0.00,,,0.00,WUHU216HW,2013-01-12 18:08:00,
2013-01-12 12:13:00,54.2,46.1,29.92,West,265,3.0,6.5,74,0.00,,,0.00,WUHU216HW,2013-01-12 18:13:00,
2013-01-12 12:18:00,54.2,46.1,29.92,SW,229,1.3,6.1,74,0.00,,,0.00,WUHU216HW,2013-01-12 18:18:00,
2013-01-12 12:23:00,54.0,45.9,29.92,SSW,203,4.8,4.8,74,0.00,,,0.00,WUHU216HW,2013-01-12 18:23:00,
2013-01-12 12:28:00,54.0,45.9,29.91,SW,225,1.5,5.6,74,0.00,,,0.00,WUHU216HW,2013-01-12 18:28:00,
2013-01-12 12:33:00,54.0,45.9,29.91,WSW,237,1.4,5.6,74,0.00,,,0.00,WUHU216HW,2013-01-12 18:33:00,
2013-01-12 12:38:00,54.0,46.3,29.91,SW,234,1.1,2.2,75,0.00,,,0.00,WUHU216HW,2013-01-12 18:38:00,
2013-01-12 12:43:00,54.0,45.9,29.91,SSW,203,3.7,4.6,74,0.00,,,0.00,WUHU216HW,2013-01-12 18:43:00,
2013-01-12 12:48:00,54.0,45.6,29.91,SW,225,2.2,4.6,73,0.00,,,0.00,WUHU216HW,2013-01-12 18:48:00,
2013-01-12 12:53:00,53.6,44.5,29.91,SW,233,2.4,4.3,71,0.00,,,0.00,WUHU216HW,2013-01-12 18:53:00,
2013-01-12 12:58:00,53.6,44.5,29.92,WSW,248,3.2,3.7,71,0.00,,,0.00,WUHU216HW,2013-01-12 18:58:00,
2013-01-12 13:03:00,53.6,44.1,29.92,SW,232,2.2,3.7,70,0.00,,,0.00,WUHU216HW,2013-01-12 19:03:00,
2013-01-12 13:08:00,53.6,43.8,29.93,WSW,245,2.9,5.9,69,0.00,,,0.00,WUHU216HW,2013-01-12 19:08:00,
2013-01-12 13:13:00,53.5,43.1,29.92,WSW,242,1.7,5.9,68,0.00,,,0.00,WUHU216HW,2013-01-12 19:13:00,
2013-01-12 14:00:00,50.8,37.4,29.94,SW,225,3.5,3.5,60,0.00,,,0.00,WUHU216HW,2013-01-12 20:00:00,
2013-01-12 14:01:00,50.8,37.4,29.94,SW,225,3.5,3.5,60,0.00,,,0.00,WUHU216HW,2013-01-12 20:01:00,
2013-01-12 14:02:00,50.8,36.9,29.94,SW,225,2.3,3.5,59,0.00,,,0.00,WUHU216HW,2013-01-12 20:02:00,
2013-01-12 14:03:00,50.8,36.9,29.94,SW,225,4.1,4.1,59,0.00,,,0.00,WUHU216HW,2013-01-12 20:03:00,
2013-01-12 14:04:00,50.8,37.8,29.94,SW,224,3.1,4.1,61,0.00,,,0.00,WUHU216HW,2013-01-12 20:04:00,
2013-01-12 15:00:00,48.8,36.7,29.95,WSW,248,0.8,1.3,63,0.00,,,0.00,WUHU216HW,2013-01-12 21:00:00,
2013-01-12 15:05:00,48.6,37.0,29.95,WSW,240,0.7,1.3,64,0.00,,,0.00,WUHU216HW,2013-01-12 21:05:00,
2013-01-12 15:10:00,48.6,37.0,29.97,SW,225,1.5,2.2,64,0.00,,,0.00,WUHU216HW,2013-01-12 21:10:00,
2013-01-12 15:15:00,48.6,37.0,29.97,SSW,203,1.3,3.2,64,0.00,,,0.00,WUHU216HW,2013-01-12 21:15:00,
2013-01-12 15:20:00,48.2,37.0,29.97,SSW,198,3.7,6.1,65,0.00,,,0.00,WUHU216HW,2013-01-12 21:20:00,
2013-01-12 15:25:00,48.2,37.4,29.98,South,191,3.9,8.3,66,0.00,,,0.00,WUHU216HW,2013-01-12 21:25:00,
2013-01-12 15:30:00,47.9,37.0,29.97,SSW,213,1.4,8.3,66,0.00,,,0.00,WUHU216HW,2013-01-12 21:30:00,
2013-01-12 15:35:00,47.5,37.1,29.98,SW,220,1.6,5.6,67,0.00,,,0.00,WUHU216HW,2013-01-12 21:35:00,
2013-01-12 15:40:00,47.3,36.9,29.97,SW,225,0.9,5.6,67,0.00,,,0.00,WUHU216HW,2013-01-12 21:40:00,
2013-01-12 15:45:00,47.2,37.2,29.96,SW,225,0.5,1.9,68,0.00,,,0.00,WUHU216HW,2013-01-12 21:45:00,
2013-01-12 15:50:00,47.2,37.2,29.96,WSW,248,0.6,1.9,68,0.00,,,0.00,WUHU216HW,2013-01-12 21:50:00,
2013-01-12 15:55:00,47.0,37.0,29.96,WSW,248,0.0,1.3,68,0.00,,,0.00,WUHU216HW,2013-01-12 21:55:00,
2013-01-12 16:00:00,46.8,37.2,29.96,West,259,1.8,4.1,69,0.00,,,0.00,WUHU216HW,2013-01-12 22:00:00,
2013-01-12 16:05:00,46.4,36.9,29.95,West,270,2.4,4.1,69,0.00,,,0.00,WUHU216HW,2013-01-12 22:05:00,
2013-01-12 16:10:00,46.4,36.9,29.94,West,259,0.5,3.2,69,0.00,,,0.00,WUHU216HW,2013-01-12 22:10:00,
2013-01-12 16:15:00,46.3,36.7,29.94,WSW,248,1.1,3.2,69,0.00,,,0.00,WUHU216HW,2013-01-12 22:15:00,
2013-01-12 16:20:00,46.1,36.9,29.94,WSW,248,1.3,2.2,70,0.00,,,0.00,WUHU216HW,2013-01-12 22:20:00,
2013-01-12 16:25:00,45.9,36.7,29.94,West,267,1.1,2.2,70,0.00,,,0.00,WUHU216HW,2013-01-12 22:25:00,
2013-01-12 16:30:00,45.7,36.5,29.94,West,270,3.0,3.0,70,0.00,,,0.00,WUHU216HW,2013-01-12 22:30:00,
2013-01-12 16:35:00,45.5,36.7,29.95,WSW,248,2.2,4.1,71,0.00,,,0.00,WUHU216HW,2013-01-12 22:35:00,
2013-01-12 16:40:00,45.4,36.6,29.95,WNW,293,3.7,4.3,71,0.00,,,0.00,WUHU216HW,2013-01-12 22:40:00,
2013-01-12 16:45:00,45.4,36.6,29.96,West,270,1.1,4.3,71,0.00,,,0.00,WUHU216HW,2013-01-12 22:45:00,
2013-01-12 16:50:00,45.0,36.6,29.96,West,270,1.3,3.7,72,0.00,,,0.00,WUHU216HW,2013-01-12 22:50:00,
2013-01-12 16:55:00,45.0,36.6,29.96,WSW,248,1.3,3.7,72,0.00,,,0.00,WUHU216HW,2013-01-12 22:55:00,
2013-01-12 17:00:00,44.8,36.4,29.97,WSW,248,2.2,2.6,72,0.00,,,0.00,WUHU216HW,2013-01-12 23:00:00,
2013-01-12 17:05:00,44.6,36.2,29.97,West,270,0.3,4.1,72,0.00,,,0.00,WUHU216HW,2013-01-12 23:05:00,
2013-01-12 17:10:00,44.6,36.5,29.97,West,264,2.9,5.4,73,0.00,,,0.00,WUHU216HW,2013-01-12 23:10:00,
2013-01-12 17:15:00,44.5,36.4,29.97,West,268,1.3,5.4,73,0.00,,,0.00,WUHU216HW,2013-01-12 23:15:00,
2013-01-12 17:20:00,44.3,36.2,29.97,NW,315,1.9,3.5,73,0.00,,,0.00,WUHU216HW,2013-01-12 23:20:00,
2013-01-12 17:25:00,44.1,35.3,29.98,NW,319,4.5,7.0,71,0.00,,,0.00,WUHU216HW,2013-01-12 23:25:00,
2013-01-12 17:30:00,43.6,34.5,29.97,NW,315,2.8,7.0,70,0.00,,,0.00,WUHU216HW,2013-01-12 23:30:00,
2013-01-12 17:35:00,43.4,34.7,29.97,NW,319,3.0,6.1,71,0.00,,,0.00,WUHU216HW,2013-01-12 23:35:00,
2013-01-12 17:40:00,43.2,34.2,29.97,NW,326,2.9,4.8,70,0.00,,,0.00,WUHU216HW,2013-01-12 23:40:00,
2013-01-12 17:45:00,42.8,33.8,29.96,NW,315,3.5,4.1,70,0.00,,,0.00,WUHU216HW,2013-01-12 23:45:00,
2013-01-12 17:50:00,42.5,33.5,29.95,NW,319,3.3,5.4,70,0.00,,,0.00,WUHU216HW,2013-01-12 23:50:00,
2013-01-12 17:55:00,42.1,33.5,29.95,NNW,338,3.7,5.4,71,0.00,,,0.00,WUHU216HW,2013-01-12 23:55:00,
2013-01-12 18:00:00,41.9,32.9,29.94,North,0,1.9,4.8,70,0.00,,,0.00,WUHU216HW,2013-01-13 00:00:00,
2013-01-12 18:05:00,41.6,33.0,29.94,NW,315,2.6,4.3,71,0.00,,,0.00,WUHU216HW,2013-01-13 00:05:00,
2013-01-12 18:10:00,41.4,32.8,29.93,NW,315,2.6,5.2,71,0.00,,,0.00,WUHU216HW,2013-01-13 00:10:00,
2013-01-12 18:15:00,41.4,33.0,29.93,NW,319,1.4,5.2,72,0.00,,,0.00,WUHU216HW,2013-01-13 00:15:00,
2013-01-12 18:20:00,41.2,33.2,29.93,NNW,338,2.4,4.1,73,0.00,,,0.00,WUHU216HW,2013-01-13 00:20:00,
2013-01-12 18:25:00,40.9,32.9,29.93,North,11,2.1,4.1,73,0.00,,,0.00,WUHU216HW,2013-01-13 00:25:00,
2013-01-12 18:30:00,40.7,32.7,29.93,North,0,4.6,5.4,73,0.00,,,0.00,WUHU216HW,2013-01-13 00:30:00,
2013-01-12 18:35:00,40.3,32.0,29.93,NNW,338,3.5,5.4,72,0.00,,,0.00,WUHU216HW,2013-01-13 00:35:00,
2013-01-12 18:40:00,40.1,31.8,29.94,NNW,338,4.1,4.8,72,0.00,,,0.00,WUHU216HW,2013-01-13 00:40:00,
2013-01-12 18:45:00,40.0,31.3,29.95,NW,309,2.5,4.3,71,0.00,,,0.00,WUHU216HW,2013-01-13 00:45:00,
2013-01-12 18:50:00,40.0,31.6,29.94,NNW,338,1.6,4.3,72,0.00,,,0.00,WUHU216HW,2013-01-13 00:50:00,
2013-01-12 18:55:00,40.0,31.6,29.94,NW,319,1.1,3.5,72,0.00,,,0.00,WUHU216HW,2013-01-13 00:55:00,
2013-01-12 19:00:00,40.0,31.3,29.93,NW,321,1.2,3.5,71,0.00,,,0.00,WUHU216HW,2013-01-13 01:00:00,
2013-01-12 19:05:00,40.0,31.3,29.93,NW,314,0.9,3.2,71,0.00,,,0.00,WUHU216HW,2013-01-13 01:05:00,
2013-01-12 19:10:00,39.8,31.4,29.93,NNW,338,1.6,3.2,72,0.00,,,0.00,WUHU216HW,2013-01-13 01:10:00,
2013-01-12 19:15:00,39.6,31.0,29.93,NW,325,2.1,4.6,71,0.00,,,0.00,WUHU216HW,2013-01-13 01:15:00,
2013-01-12 19:20:00,39.4,30.8,29.92,North,0,2.4,4.6,71,0.00,,,0.00,WUHU216HW,2013-01-13 01:20:00,
2013-01-12 19:25:00,39.2,31.0,29.92,NW,314,2.4,3.7,72,0.00,,,0.00,WUHU216HW,2013-01-13 01:25:00,
2013-01-12 19:30:00,39.1,30.8,29.92,NW,322,2.0,4.6,72,0.00,,,0.00,WUHU216HW,2013-01-13 01:30:00,
2013-01-12 19:35:00,38.7,31.2,29.92,NNW,336,1.8,4.8,74,0.00,,,0.00,WUHU216HW,2013-01-13 01:35:00,
2013-01-12 19:40:00,38.5,31.2,29.92,NW,325,1.9,4.8,75,0.00,,,0.00,WUHU216HW,2013-01-13 01:40:00,
2013-01-12 19:45:00,38.5,31.6,29.91,NW,325,2.6,5.6,76,0.00,,,0.00,WUHU216HW,2013-01-13 01:45:00,
2013-01-12 19:50:00,38.3,31.4,29.91,NW,319,1.7,5.6,76,0.00,,,0.00,WUHU216HW,2013-01-13 01:50:00,
2013-01-12 19:55:00,38.3,31.8,29.90,North,0,2.6,3.2,77,0.00,,,0.00,WUHU216HW,2013-01-13 01:55:00,
2013-01-12 20:00:00,38.2,31.6,29.91,North,349,1.9,3.7,77,0.00,,,0.00,WUHU216HW,2013-01-13 02:00:00,
2013-01-12 20:05:00,38.3,31.4,29.90,NNW,341,1.5,3.7,76,0.00,,,0.00,WUHU216HW,2013-01-13 02:05:00,
2013-01-12 20:10:00,38.3,31.4,29.90,NNW,338,1.3,2.6,76,0.00,,,0.00,WUHU216HW,2013-01-13 02:10:00,
2013-01-12 20:15:00,38.2,31.2,29.90,NNW,342,1.9,4.6,76,0.00,,,0.00,WUHU216HW,2013-01-13 02:15:00,
2013-01-12 20:20:00,38.2,31.6,29.90,North,0,2.6,4.6,77,0.00,,,0.00,WUHU216HW,2013-01-13 02:20:00,
2013-01-12 20:25:00,38.0,32.0,29.90,NNW,338,3.0,3.5,79,0.00,,,0.00,WUHU216HW,2013-01-13 02:25:00,
2013-01-12 20:30:00,37.8,32.2,29.89,NNW,338,2.2,4.1,80,0.00,,,0.00,WUHU216HW,2013-01-13 02:30:00,
2013-01-12 20:35:00,37.8,32.8,29.89,NW,315,3.2,4.1,82,0.00,,,0.00,WUHU216HW,2013-01-13 02:35:00,
2013-01-12 20:40:00,37.8,32.8,29.90,NW,315,2.4,5.4,82,0.00,,,0.00,WUHU216HW,2013-01-13 02:40:00,
2013-01-12 20:45:00,37.8,33.1,29.89,NNW,338,3.0,5.4,83,0.00,,,0.00,WUHU216HW,2013-01-13 02:45:00,
2013-01-12 20:50:00,37.8,33.1,29.89,NNW,347,3.2,4.6,83,0.00,,,0.00,WUHU216HW,2013-01-13 02:50:00,
2013-01-12 20:55:00,37.8,33.4,29.89,NNW,346,1.8,4.3,84,0.00,,,0.00,WUHU216HW,2013-01-13 02:55:00,
2013-01-12 21:00:00,37.6,33.2,29.89,NNW,345,5.3,6.5,84,0.00,,,0.00,WUHU216HW,2013-01-13 03:00:00,
2013-01-12 21:05:00,37.6,33.2,29.90,NNW,338,4.1,6.5,84,0.00,,,0.00,WUHU216HW,2013-01-13 03:05:00,
2013-01-12 21:10:00,37.4,33.0,29.90,NW,315,4.8,5.6,84,0.00,,,0.00,WUHU216HW,2013-01-13 03:10:00,
2013-01-12 21:15:00,37.3,33.1,29.90,North,0,4.6,5.9,85,0.00,,,0.00,WUHU216HW,2013-01-13 03:15:00,
2013-01-12 21:20:00,37.1,32.7,29.91,NNW,338,8.9,8.9,84,0.00,,,0.00,WUHU216HW,2013-01-13 03:20:00,
2013-01-12 21:25:00,36.7,32.3,29.91,West,270,3.2,8.9,84,0.00,,,0.00,WUHU216HW,2013-01-13 03:25:00,
2013-01-12 21:30:00,36.5,32.1,29.91,ENE,68,8.0,8.9,84,0.00,,,0.00,WUHU216HW,2013-01-13 03:30:00,
2013-01-12 21:35:00,36.2,31.8,29.92,NW,321,6.2,11.0,84,0.00,,,0.00,WUHU216HW,2013-01-13 03:35:00,
2013-01-12 21:40:00,35.8,31.4,29.91,NNW,346,5.0,11.0,84,0.00,,,0.00,WUHU216HW,2013-01-13 03:40:00,
2013-01-12 21:45:00,35.6,31.5,29.91,NNE,23,4.3,7.6,85,0.00,,,0.00,WUHU216HW,2013-01-13 03:45:00,
2013-01-12 21:50:00,35.3,30.9,29.90,NW,324,3.8,6.1,84,0.00,,,0.00,WUHU216HW,2013-01-13 03:50:00,
2013-01-12 21:55:00,35.3,31.1,29.90,NNW,338,4.3,5.9,85,0.00,,,0.00,WUHU216HW,2013-01-13 03:55:00,
2013-01-12 22:00:00,35.1,31.0,29.90,NNW,336,3.8,7.2,85,0.00,,,0.00,WUHU216HW,2013-01-13 04:00:00,
2013-01-12 22:05:00,34.9,30.8,29.90,NNW,328,4.1,7.6,85,0.00,,,0.00,WUHU216HW,2013-01-13 04:05:00,
2013-01-12 22:10:00,34.9,30.8,29.89,NNW,343,4.5,11.8,85,0.00,,,0.00,WUHU216HW,2013-01-13 04:10:00,
2013-01-12 22:15:00,34.7,30.6,29.90,NNW,341,4.3,11.8,85,0.00,,,0.00,WUHU216HW,2013-01-13 04:15:00,
2013-01-12 22:20:00,34.7,30.9,29.89,NNE,23,4.6,6.7,86,0.00,,,0.00,WUHU216HW,2013-01-13 04:20:00,
2013-01-12 22:25:00,34.7,30.9,29.89,WNW,293,2.7,7.2,86,0.00,,,0.00,WUHU216HW,2013-01-13 04:25:00,
2013-01-12 22:30:00,34.6,30.7,29.89,NNW,346,4.0,7.2,86,0.00,,,0.00,WUHU216HW,2013-01-13 04:30:00,
2013-01-12 22:35:00,34.6,31.0,29.88,NW,315,4.8,7.8,87,0.00,,,0.00,WUHU216HW,2013-01-13 04:35:00,
2013-01-12 22:40:00,34.7,30.9,29.89,NNW,335,2.8,7.8,86,0.00,,,0.00,WUHU216HW,2013-01-13 04:40:00,
2013-01-12 22:45:00,34.7,30.9,29.88,NW,307,4.6,7.0,86,0.00,,,0.00,WUHU216HW,2013-01-13 04:45:00,
2013-01-12 22:50:00,34.7,30.9,29.86,North,358,7.2,11.3,86,0.00,,,0.00,WUHU216HW,2013-01-13 04:50:00,
2013-01-12 22:55:00,34.7,30.9,29.86,North,355,3.7,11.3,86,0.00,,,0.00,WUHU216HW,2013-01-13 04:55:00,
2013-01-12 23:01:00,34.7,30.9,29.86,North,355,5.1,7.6,86,0.00,,,0.00,WUHU216HW,2013-01-13 05:01:00,
2013-01-12 23:02:00,34.7,30.9,29.86,North,357,4.6,7.6,86,0.00,,,0.00,WUHU216HW,2013-01-13 05:02:00,
2013-01-12 23:03:00,34.7,31.1,29.86,NNE,23,5.4,7.6,87,0.00,,,0.00,WUHU216HW,2013-01-13 05:03:00,
2013-01-12 23:08:00,34.9,31.3,29.87,NNW,340,5.1,7.6,87,0.00,,,0.00,WUHU216HW,2013-01-13 05:08:00,
2013-01-12 23:13:00,34.9,31.3,29.86,North,353,5.4,8.6,87,0.00,,,0.00,WUHU216HW,2013-01-13 05:13:00,
2013-01-12 23:18:00,35.1,31.2,29.86,SE,135,5.6,10.4,86,0.00,,,0.00,WUHU216HW,2013-01-13 05:18:00,
2013-01-12 23:23:00,35.3,31.7,29.85,North,350,4.5,10.4,87,0.00,,,0.00,WUHU216HW,2013-01-13 05:23:00,
2013-01-12 23:28:00,35.3,31.4,29.85,NNW,337,2.4,8.0,86,0.00,,,0.00,WUHU216HW,2013-01-13 05:28:00,
2013-01-12 23:33:00,35.3,31.4,29.86,NW,315,5.2,7.0,86,0.00,,,0.00,WUHU216HW,2013-01-13 05:33:00,
2013-01-12 23:38:00,35.3,31.4,29.86,North,0,5.9,7.6,86,0.00,,,0.00,WUHU216HW,2013-01-13 05:38:00,
2013-01-12 23:43:00,35.3,31.7,29.86,NNE,23,4.8,8.3,87,0.00,,,0.00,WUHU216HW,2013-01-13 05:43:00,
2013-01-12 23:48:00,35.3,32.1,29.87,NW,325,4.9,9.7,88,0.00,,,0.00,WUHU216HW,2013-01-13 05:48:00,
2013-01-12 23:53:00,35.3,32.1,29.87,NW,315,2.6,9.7,88,0.00,,,0.00,WUHU216HW,2013-01-13 05:53:00,
2013-01-12 23:58:00,35.3,31.7,29.87,NW,320,2.1,3.7,87,0.00,,,0.00,WUHU216HW,2013-01-13 05:58:00,